This is the latest recevied weather packets stored in our database for station/object KB0RPJ. If no packets are shown the sender has not sent any weather packets the latest 10 day(s).
| Time | Temp. | Humidity | Pressure | Rain* | Wind** | Luminosity | Snow |
|---|---|---|---|---|---|---|---|
| 1777382405 | 9.44° C | 81% | 1017.4 hPa | 0 mm | - | 64 W/m² | - |
| 1777382109 | 8.89° C | 81% | 1017.4 hPa | 0 mm | - | 52 W/m² | - |
| 1777381805 | 8.89° C | 81% | 1017.3 hPa | 0 mm | - | 49 W/m² | - |
| 1777381507 | 8.89° C | 82% | 1017.1 hPa | 0 mm | - | 53 W/m² | - |
| 1777381205 | 8.89° C | 81% | 1016.9 hPa | 0 mm | - | 55 W/m² | - |
| 1777380905 | 8.89° C | 81% | 1016.6 hPa | 0 mm | - | 39 W/m² | - |
| 1777380608 | 8.89° C | 81% | 1016.4 hPa | 0 mm | - | 30 W/m² | - |
| 1777380304 | 8.89° C | 81% | 1016.1 hPa | 0 mm | - | 38 W/m² | - |
| 1777380004 | 8.89° C | 81% | 1015.9 hPa | 0 mm | - | 46 W/m² | - |
| 1777379706 | 8.89° C | 81% | 1016 hPa | 0 mm | - | 38 W/m² | - |
| 1777379406 | 8.89° C | 81% | 1015.9 hPa | 0 mm | - | 28 W/m² | - |
| 1777379104 | 8.89° C | 82% | 1015.6 hPa | 0 mm | - | 28 W/m² | - |
| 1777378805 | 8.89° C | 82% | 1015.4 hPa | 0 mm | - | 29 W/m² | - |
| 1777378505 | 8.89° C | 83% | 1015.2 hPa | 0 mm | - | 26 W/m² | - |
| 1777378205 | 8.89° C | 83% | 1015 hPa | 0 mm | - | 29 W/m² | - |
| 1777377905 | 8.33° C | 82% | 1014.7 hPa | 0 mm | - | 24 W/m² | - |
| 1777377605 | 8.33° C | 82% | 1014.6 hPa | 0 mm | - | 23 W/m² | - |
| 1777377305 | 8.33° C | 82% | 1014.4 hPa | 0 mm | - | 19 W/m² | - |
| 1777377005 | 8.33° C | 82% | 1014.2 hPa | 0 mm | - | 16 W/m² | - |
| 1777376716 | 8.33° C | 82% | 1014 hPa | 0 mm | - | 16 W/m² | - |
| 1777376406 | 8.89° C | 82% | 1014 hPa | 0 mm | - | 12 W/m² | - |
| 1777376108 | 8.89° C | 81% | 1014 hPa | 0 mm | - | 7 W/m² | - |
| 1777375816 | 8.89° C | 81% | 1014.5 hPa | 0 mm | - | 5 W/m² | - |
| 1777375506 | 8.89° C | 81% | 1015 hPa | 0 mm | - | 3 W/m² | - |
| 1777375205 | 8.89° C | 82% | 1015.2 hPa | 0 mm | - | 2 W/m² | - |
* Rain latest hour (hover to see other rain measurements)
** Current wind speed in m/s (hover to see current wind gust speed)